Weather History for Zapata, TX

Change the Weather History Date:

Saturday, January 26, 2013

  Actual Average (KLRD) Record (KLRD)
Temperature  
Mean Temperature 73 °F 58 °F  
Max Temperature 86 °F 68 °F 95 °F (1975)
Min Temperature 60 °F 47 °F 26 °F (1978)
Degree Days  
Heating Degree Days 0 9  
Month to date heating degree days 250  
Since 1 July heating degree days 640  
Cooling Degree Days 8 1  
Month to date cooling degree days 26  
Year to date cooling degree days 26  
Growing Degree Days 23 (Base 50)    
Moisture  
Dew Point 53 °F    
Average Humidity 60    
Maximum Humidity 94    
Minimum Humidity 16    
Precipitation  
Precipitation 0.00 in 0.03 in 0.83 in (1992)
Month to date precipitation 0.76  
Year to date precipitation 0.76  
Sea Level Pressure  
Sea Level Pressure 30.04 in    
Wind  
Wind Speed 8 mph (SE)    
Max Wind Speed 16 mph    
Max Gust Speed 24 mph    
Visibility 10 miles    
Events      
T = Trace of Precipitation, MM = Missing Value Source: NWS Daily Summary

Daily Weather History Graph

Daily Weather History Graph

Search for Another Location

Airport:

Trip Planner

Search our weather history database for the weather conditions in past years. The results will help you decide how hot, cold, wet, or windy it might be!

Date:

Astronomy

Jan. 26, 2013 Rise Set
Actual Time 7:25 AM CST 6:14 PM CST
Civil Twilight 7:00 AM CST 6:39 PM CST
Nautical Twilight 6:32 AM CST 7:07 PM CST
Astronomical Twilight 6:04 AM CST 7:34 PM CST
Moon 6:06 PM CST (1/26) 6:46 AM CST (1/26)
Length of Visible Light 11h 38m
Length of Day
10h 49m
Full, 100% of the Moon is Illuminated
Jan 26
Full
Jan 26
Full
Feb 3
Last Quarter
Feb 10
New
Feb 17
First Quarter

Hourly Weather History & Observations

Time (CST) Temp. Dew Point Humidity Pressure Visibility Wind Dir Wind Speed Gust Speed Precip Events Conditions
12:15 AM 67.1 °F 59.5 °F 77% 30.06 in 10.0 mi ESE 8.1 mph - N/A   Clear
12:35 AM 66.6 °F 59.5 °F 78% 30.06 in 10.0 mi ESE 6.9 mph - N/A   Clear
12:55 AM 66.2 °F 59.5 °F 79% 30.05 in 10.0 mi ESE 8.1 mph - N/A   Clear
1:15 AM 65.7 °F 59.7 °F 81% 30.06 in 10.0 mi ESE 6.9 mph - N/A   Clear
1:35 AM 65.3 °F 59.9 °F 83% 30.06 in 10.0 mi ESE 6.9 mph - N/A   Clear
1:55 AM 64.6 °F 60.3 °F 86% 30.06 in 10.0 mi ESE 5.8 mph - N/A   Clear
2:15 AM 64.4 °F 60.8 °F 88% 30.05 in 10.0 mi ESE 6.9 mph - N/A   Clear
2:35 AM 63.7 °F 60.8 °F 90% 30.05 in 10.0 mi ESE 6.9 mph - N/A   Clear
2:55 AM 63.5 °F 60.8 °F 91% 30.05 in 10.0 mi ESE 4.6 mph - N/A   Clear
3:15 AM 63.5 °F 60.8 °F 91% 30.04 in 10.0 mi ESE 5.8 mph - N/A   Clear
3:35 AM 63.7 °F 61.2 °F 91% 30.04 in 10.0 mi SE 6.9 mph - N/A   Clear
3:55 AM 63.5 °F 61.0 °F 91% 30.03 in 10.0 mi ESE 5.8 mph - N/A   Clear
4:15 AM 63.1 °F 60.8 °F 92% 30.03 in 10.0 mi SE 5.8 mph - N/A   Clear
4:35 AM 62.8 °F 60.8 °F 93% 30.03 in 10.0 mi SE 5.8 mph - N/A   Clear
4:55 AM 62.8 °F 60.6 °F 93% 30.03 in 10.0 mi SE 4.6 mph - N/A   Clear
5:15 AM 62.2 °F 59.9 °F 92% 30.03 in 10.0 mi ESE 4.6 mph - N/A   Clear
5:35 AM 61.9 °F 59.9 °F 93% 30.04 in 10.0 mi ESE 3.5 mph - N/A   Clear
5:55 AM 61.9 °F 59.9 °F 93% 30.04 in 10.0 mi ESE 5.8 mph - N/A   Clear
6:15 AM 62.1 °F 59.9 °F 93% 30.04 in 10.0 mi ESE 6.9 mph - N/A   Clear
6:35 AM 61.9 °F 59.5 °F 92% 30.05 in 10.0 mi ESE 3.5 mph - N/A   Clear
6:55 AM 60.8 °F 58.6 °F 93% 30.05 in 10.0 mi East 3.5 mph - N/A   Clear
7:15 AM 60.6 °F 58.8 °F 94% 30.05 in 10.0 mi ESE 6.9 mph - N/A   Clear
7:35 AM 60.8 °F 59.0 °F 94% 30.07 in 10.0 mi North - - N/A   Clear
7:55 AM 60.8 °F 59.0 °F 94% 30.07 in 10.0 mi Calm Calm - N/A   Clear
8:15 AM 61.7 °F 59.9 °F 94% 30.08 in 10.0 mi Calm Calm - N/A   Clear
8:35 AM 63.7 °F 60.8 °F 90% 30.08 in 10.0 mi SE 4.6 mph - N/A   Clear
8:55 AM 65.3 °F 59.9 °F 83% 30.08 in 10.0 mi ESE 6.9 mph - N/A   Scattered Clouds
9:15 AM 66.7 °F 59.2 °F 77% 30.08 in 10.0 mi SE 8.1 mph - N/A   Scattered Clouds
9:35 AM 68.2 °F 59.0 °F 72% 30.09 in 10.0 mi SE 9.2 mph - N/A   Clear
9:55 AM 69.8 °F 58.5 °F 67% 30.10 in 10.0 mi SSE 10.4 mph - N/A   Clear
10:15 AM 70.9 °F 58.1 °F 64% 30.10 in 10.0 mi South 6.9 mph - N/A   Clear
10:35 AM 71.8 °F 57.9 °F 62% 30.10 in 10.0 mi SSE 9.2 mph - N/A   Clear
10:55 AM 73.0 °F 57.4 °F 58% 30.10 in 10.0 mi SE 9.2 mph - N/A   Clear
11:15 AM 74.7 °F 56.5 °F 53% 30.09 in 10.0 mi SE 10.4 mph - N/A   Clear
11:35 AM 75.4 °F 56.3 °F 51% 30.08 in 10.0 mi SE 8.1 mph - N/A   Clear
11:55 AM 77.0 °F 56.1 °F 48% 30.07 in 10.0 mi SE 8.1 mph - N/A   Clear
12:15 PM 78.4 °F 53.8 °F 42% 30.06 in 10.0 mi SSE 11.5 mph 16.1 mph N/A   Clear
12:35 PM 79.7 °F 52.5 °F 39% 30.05 in 10.0 mi SSE 11.5 mph 16.1 mph N/A   Clear
12:55 PM 81.0 °F 50.7 °F 35% 30.05 in 10.0 mi SSE 9.2 mph 16.1 mph N/A   Clear
1:15 PM 82.2 °F 50.2 °F 33% 30.03 in 10.0 mi SE 10.4 mph - N/A   Clear
1:35 PM 82.8 °F 49.3 °F 31% 30.02 in 10.0 mi SE 10.4 mph 17.3 mph N/A   Clear
1:55 PM 83.8 °F 47.3 °F 28% 30.01 in 10.0 mi SE 11.5 mph 17.3 mph N/A   Clear
2:15 PM 84.4 °F 44.6 °F 25% 30.00 in 10.0 mi SE 11.5 mph 18.4 mph N/A   Clear
2:35 PM 84.9 °F 43.5 °F 23% 29.99 in 10.0 mi SE 13.8 mph 18.4 mph N/A   Clear
2:55 PM 85.6 °F 41.0 °F 21% 29.98 in 10.0 mi SSE 15.0 mph 20.7 mph N/A   Clear
3:15 PM 85.8 °F 37.9 °F 18% 29.98 in 10.0 mi SE 11.5 mph 20.7 mph N/A   Clear
3:35 PM 86.0 °F 35.2 °F 16% 29.97 in 10.0 mi SE 13.8 mph 19.6 mph N/A   Clear
3:55 PM 85.8 °F 36.5 °F 17% 29.97 in 10.0 mi ESE 13.8 mph 23.0 mph N/A   Clear
4:15 PM 85.1 °F 34.2 °F 16% 29.97 in 10.0 mi SSE 15.0 mph 21.9 mph N/A   Clear
4:35 PM 84.2 °F 33.8 °F 16% 29.97 in 10.0 mi ESE 16.1 mph 24.2 mph N/A   Clear
4:55 PM 83.3 °F 36.0 °F 18% 29.97 in 10.0 mi ESE 15.0 mph 21.9 mph N/A   Clear
5:15 PM 82.8 °F 37.2 °F 20% 29.97 in 10.0 mi ESE 15.0 mph 20.7 mph N/A   Clear
5:35 PM 81.3 °F 38.1 °F 21% 29.97 in 10.0 mi ESE 15.0 mph 21.9 mph N/A   Clear
5:55 PM 80.1 °F 40.8 °F 25% 29.98 in 10.0 mi ESE 10.4 mph 18.4 mph N/A   Clear
6:15 PM 78.8 °F 43.7 °F 29% 29.98 in 10.0 mi ESE 11.5 mph - N/A   Clear
6:35 PM 77.7 °F 43.7 °F 30% 29.99 in 10.0 mi ESE 13.8 mph 18.4 mph N/A   Clear
6:55 PM 76.5 °F 40.5 °F 27% 30.00 in 10.0 mi ESE 11.5 mph 17.3 mph N/A   Clear
7:15 PM 75.6 °F 40.6 °F 28% 30.01 in 10.0 mi SE 10.4 mph - N/A   Clear
7:35 PM 74.3 °F 41.9 °F 31% 30.02 in 10.0 mi SE 9.2 mph - N/A   Clear
7:55 PM 73.9 °F 47.7 °F 39% 30.02 in 10.0 mi SE 10.4 mph - N/A   Clear
8:15 PM 72.9 °F 48.6 °F 42% 30.03 in 10.0 mi SE 8.1 mph - N/A   Clear
8:35 PM 72.0 °F 48.2 °F 43% 30.03 in 10.0 mi ESE 12.7 mph 18.4 mph N/A   Clear
8:55 PM 71.4 °F 49.1 °F 45% 30.03 in 10.0 mi ESE 15.0 mph 23.0 mph N/A   Clear
9:15 PM 70.3 °F 50.4 °F 49% 30.04 in 10.0 mi SE 11.5 mph 17.3 mph N/A   Clear
9:35 PM 69.4 °F 53.2 °F 56% 30.04 in 10.0 mi SE 13.8 mph - N/A   Clear
9:55 PM 69.1 °F 55.8 °F 62% 30.04 in 10.0 mi SE 10.4 mph 18.4 mph N/A   Clear
10:15 PM 68.7 °F 56.8 °F 66% 30.04 in 10.0 mi SE 12.7 mph 20.7 mph N/A   Clear
10:35 PM 68.4 °F 57.6 °F 68% 30.04 in 10.0 mi SE 13.8 mph 18.4 mph N/A   Clear
10:55 PM 68.2 °F 58.3 °F 71% 30.04 in 10.0 mi SE 10.4 mph 17.3 mph N/A   Clear
11:15 PM 68.0 °F 58.6 °F 72% 30.04 in 10.0 mi SE 9.2 mph 18.4 mph N/A   Clear
11:35 PM 67.5 °F 59.0 °F 74% 30.03 in 10.0 mi SE 11.5 mph - N/A   Clear
11:55 PM 67.3 °F 59.5 °F 76% 30.03 in 10.0 mi SE 11.5 mph 16.1 mph N/A   Scattered Clouds